EN

Hourly Weather Lagoa Formosa

Today, 31 July, Saturday

Time Temperature Precipitation Wind Pressure Humidity
00:00 +14°C° 0 mm 1 mps 692 mmHg 21%
01:00 +13°C° 0 mm 1 mps 692 mmHg 24%
02:00 +13°C° 0 mm 1 mps 691 mmHg 27%
03:00 +12°C° 0 mm 2 mps 691 mmHg 30%
04:00 +12°C° 0 mm 2 mps 691 mmHg 44%
05:00 +10°C° 0 mm 2 mps 692 mmHg 58%
06:00 +10°C° 0 mm 2 mps 692 mmHg 72%
07:00 +12°C° 0 mm 3 mps 693 mmHg 69%
08:00 +14°C° 0 mm 3 mps 694 mmHg 65%
09:00 +17°C° 0 mm 4 mps 695 mmHg 61%
10:00 +19°C° 0 mm 4 mps 695 mmHg 53%
11:00 +22°C° 0 mm 4 mps 695 mmHg 46%
12:00 +25°C° 0 mm 4 mps 695 mmHg 38%
13:00 +26°C° 0 mm 4 mps 694 mmHg 36%
14:00 +27°C° 0 mm 3 mps 693 mmHg 34%
15:00 +27°C° 0 mm 3 mps 693 mmHg 33%
16:00 +25°C° 0 mm 3 mps 693 mmHg 37%
17:00 +24°C° 0 mm 3 mps 693 mmHg 41%
18:00 +21°C° 0 mm 2 mps 693 mmHg 45%
19:00 +20°C° 0 mm 2 mps 693 mmHg 48%
20:00 +19°C° 0 mm 2 mps 693 mmHg 51%
21:00 +18°C° 0 mm 2 mps 694 mmHg 53%
22:00 +17°C° 0 mm 2 mps 694 mmHg 55%
23:00 +16°C° 0 mm 3 mps 694 mmHg 57%

Tomorrow, 1 August, Sunday

Time Temperature Precipitation Wind Pressure Humidity
00:00 +16°C° 0 mm 3 mps 694 mmHg 59%
01:00 +14°C° 0 mm 3 mps 694 mmHg 63%
02:00 +13°C° 0 mm 3 mps 693 mmHg 67%
03:00 +13°C° 0 mm 2 mps 693 mmHg 71%
04:00 +13°C° 0 mm 2 mps 693 mmHg 74%
05:00 +12°C° 0 mm 2 mps 693 mmHg 76%
06:00 +12°C° 0 mm 2 mps 693 mmHg 79%
07:00 +13°C° 0 mm 3 mps 694 mmHg 70%
08:00 +16°C° 0 mm 3 mps 695 mmHg 61%
09:00 +18°C° 0 mm 4 mps 696 mmHg 53%
10:00 +20°C° 0 mm 3 mps 696 mmHg 47%
11:00 +22°C° 0 mm 3 mps 696 mmHg 41%
12:00 +25°C° 0 mm 3 mps 696 mmHg 36%
13:00 +26°C° 0 mm 3 mps 695 mmHg 34%
14:00 +27°C° 0 mm 3 mps 694 mmHg 32%
15:00 +27°C° 0 mm 3 mps 694 mmHg 30%
16:00 +26°C° 0 mm 3 mps 694 mmHg 34%
17:00 +24°C° 0 mm 3 mps 694 mmHg 38%
18:00 +21°C° 0 mm 3 mps 693 mmHg 42%
19:00 +19°C° 0 mm 2 mps 694 mmHg 45%
20:00 +18°C° 0 mm 2 mps 694 mmHg 48%
21:00 +17°C° 0 mm 2 mps 694 mmHg 51%
22:00 +16°C° 0 mm 2 mps 694 mmHg 52%
23:00 +16°C° 0 mm 2 mps 694 mmHg 53%

Day after tomorrow, 2 August, Monday

Time Temperature Precipitation Wind Pressure Humidity
00:00 +15°C° 0 mm 2 mps 694 mmHg 54%
01:00 +15°C° 0 mm 1 mps 693 mmHg 56%
02:00 +14°C° 0 mm 1 mps 693 mmHg 58%
03:00 +13°C° 0 mm 1 mps 693 mmHg 60%
04:00 +12°C° 0 mm 1 mps 693 mmHg 62%
05:00 +12°C° 0 mm 1 mps 693 mmHg 64%
06:00 +12°C° 0 mm 1 mps 693 mmHg 65%
07:00 +14°C° 0 mm 2 mps 694 mmHg 58%
08:00 +16°C° 0 mm 2 mps 694 mmHg 50%
09:00 +18°C° 0 mm 3 mps 695 mmHg 43%
10:00 +20°C° 0 mm 3 mps 695 mmHg 38%
11:00 +24°C° 0 mm 3 mps 695 mmHg 32%
12:00 +26°C° 0 mm 3 mps 695 mmHg 27%
13:00 +27°C° 0 mm 3 mps 694 mmHg 26%
14:00 +27°C° 0 mm 3 mps 694 mmHg 24%
15:00 +28°C° 0 mm 2 mps 693 mmHg 22%
16:00 +26°C° 0 mm 2 mps 693 mmHg 26%
17:00 +24°C° 0 mm 2 mps 692 mmHg 29%
18:00 +21°C° 0 mm 2 mps 692 mmHg 33%
19:00 +20°C° 0 mm 2 mps 692 mmHg 36%
20:00 +19°C° 0 mm 2 mps 692 mmHg 39%
21:00 +18°C° 0 mm 1 mps 692 mmHg 43%
22:00 +18°C° 0 mm 1 mps 692 mmHg 44%
23:00 +16°C° 0 mm 1 mps 692 mmHg 45%

3 August, Tuesday

Time Temperature Precipitation Wind Pressure Humidity
00:00 +15°C° 0 mm 0 mps 692 mmHg 46%
01:00 +14°C° 0 mm 0 mps 692 mmHg 47%
02:00 +14°C° 0 mm 0 mps 691 mmHg 48%
03:00 +14°C° 0 mm 0 mps 691 mmHg 49%
04:00 +13°C° 0 mm 0 mps 691 mmHg 50%
05:00 +13°C° 0 mm 0 mps 691 mmHg 52%
06:00 +12°C° 0 mm 0 mps 691 mmHg 53%
07:00 +16°C° 0 mm 1 mps 692 mmHg 48%
08:00 +19°C° 0 mm 1 mps 693 mmHg 43%
09:00 +21°C° 0 mm 2 mps 693 mmHg 38%
10:00 +24°C° 0 mm 2 mps 693 mmHg 34%
11:00 +26°C° 0 mm 2 mps 693 mmHg 30%
12:00 +28°C° 0 mm 2 mps 693 mmHg 25%
13:00 +29°C° 0 mm 2 mps 692 mmHg 24%
14:00 +29°C° 0 mm 2 mps 692 mmHg 23%
15:00 +30°C° 0 mm 1 mps 691 mmHg 22%
16:00 +28°C° 0 mm 1 mps 691 mmHg 25%
17:00 +26°C° 0 mm 1 mps 691 mmHg 28%
18:00 +24°C° 0 mm 1 mps 690 mmHg 31%
19:00 +23°C° 0 mm 1 mps 691 mmHg 34%
20:00 +22°C° 0 mm 1 mps 691 mmHg 37%
21:00 +20°C° 0 mm 1 mps 691 mmHg 40%
22:00 +20°C° 0 mm 1 mps 691 mmHg 41%
23:00 +19°C° 0 mm 1 mps 691 mmHg 43%

4 August, Wednesday

Time Temperature Precipitation Wind Pressure Humidity
00:00 +16°C° 0 mm 0 mps 691 mmHg 45%
01:00 +16°C° 0 mm 0 mps 690 mmHg 46%
02:00 +18°C° 0 mm 1 mps 690 mmHg 48%
03:00 +16°C° 0 mm 1 mps 690 mmHg 49%
04:00 +16°C° 0 mm 1 mps 690 mmHg 51%
05:00 +15°C° 0 mm 1 mps 690 mmHg 52%
06:00 +15°C° 0 mm 1 mps 690 mmHg 54%
07:00 +18°C° 0 mm 1 mps 691 mmHg 47%
08:00 +20°C° 0 mm 2 mps 692 mmHg 41%
09:00 +23°C° 0 mm 2 mps 693 mmHg 34%
10:00 +25°C° 0 mm 2 mps 693 mmHg 31%
11:00 +27°C° 0 mm 2 mps 693 mmHg 27%
12:00 +29°C° 0 mm 2 mps 693 mmHg 24%
13:00 +30°C° 0 mm 1 mps 693 mmHg 22%
14:00 +30°C° 0 mm 1 mps 692 mmHg 21%
15:00 +31°C° 0 mm 1 mps 691 mmHg 19%
16:00 +29°C° 0 mm 1 mps 691 mmHg 22%
17:00 +26°C° 0 mm 1 mps 691 mmHg 25%
18:00 +24°C° 0 mm 1 mps 691 mmHg 28%
19:00 +23°C° 0 mm 1 mps 691 mmHg 33%
20:00 +21°C° 0 mm 1 mps 692 mmHg 37%
21:00 +19°C° 0 mm 2 mps 692 mmHg 42%
22:00 +20°C° 0 mm 1 mps 692 mmHg 43%
23:00 +19°C° 0 mm 1 mps 692 mmHg 44%

5 August, Thursday

Time Temperature Precipitation Wind Pressure Humidity
00:00 +19°C° 0 mm 1 mps 692 mmHg 45%
01:00 +17°C° 0 mm 2 mps 692 mmHg 50%
02:00 +17°C° 0 mm 2 mps 692 mmHg 55%
03:00 +16°C° 0 mm 3 mps 692 mmHg 60%
04:00 +16°C° 0 mm 3 mps 692 mmHg 66%
05:00 +14°C° 0 mm 3 mps 692 mmHg 72%
06:00 +13°C° 0 mm 3 mps 692 mmHg 77%
07:00 +16°C° 0 mm 3 mps 693 mmHg 71%
08:00 +18°C° 0 mm 4 mps 694 mmHg 64%
09:00 +19°C° 0 mm 4 mps 695 mmHg 57%
10:00 +21°C° 0 mm 4 mps 695 mmHg 51%
11:00 +23°C° 0 mm 4 mps 695 mmHg 45%
12:00 +26°C° 0 mm 4 mps 695 mmHg 39%
13:00 +27°C° 0 mm 4 mps 695 mmHg 36%
14:00 +27°C° 0 mm 4 mps 694 mmHg 34%
15:00 +28°C° 0 mm 4 mps 693 mmHg 32%
16:00 +26°C° 0 mm 3 mps 693 mmHg 35%
17:00 +25°C° 0 mm 3 mps 693 mmHg 39%
18:00 +23°C° 0 mm 2 mps 693 mmHg 42%
19:00 +21°C° 0 mm 2 mps 694 mmHg 44%
20:00 +20°C° 0 mm 2 mps 694 mmHg 45%
21:00 +19°C° 0 mm 2 mps 694 mmHg 47%
22:00 +18°C° 0 mm 3 mps 694 mmHg 49%
23:00 +18°C° 0 mm 3 mps 694 mmHg 50%
Show more